Cloud_Cover
0 0 0 0 0 0 0 0 0 0 0 0 0 0 0 0 1 5 5 4 5 5 4 0 0 0 2 0 17 4 32 55 6 71 50 67 5 5 5 2 6 60 82
0 0 0 0 0 0 0 0 0 0 0 0 0 0 0 5 5 3 0 5 5 5 3 1 3 0 14 17 80 10 5 5 85 52 35 5 5 5 7 7 8 5 5
0 0 0 0 0 0 0 0 0 0 0 0 0 0 1 2 5 5 0 4 5 5 4 4 0 1 100 84 92 75 5 5 98 58 98 11 13 5 7 28 6 29 76
0 0 0 0 0 0 0 0 0 0 0 0 0 0 2 5 5 5 4 5 5 44 5 5 0 1 78 100 100 80 5 5 42 7 98 96 94 22 56 65 82 96 88
0 0 0 0 0 0 0 0 0 0 0 0 0 4 0 3 5 5 5 100 97 88 86 57 5 4 97 100 63 81 19 85 98 85 100 94 99 34 40 100 100 52 92
0 0 0 0 0 0 0 0 0 0 0 0 0 5 5 5 0 60 100 100 100 67 64 3 0 69 90 58 99 96 100 60 92 100 100 100 100 100 100 100 100 96 5
0 0 0 0 0 0 0 0 7 0 0 0 0 0 0 5 96 100 52 91 35 97 100 2 0 73 93 3 100 5 97 66 100 100 100 100 100 87 100 95 5 42 37
0 0 0 0 0 0 0 0 11 29 0 1 0 0 2 98 100 100 100 100 100 100 100 79 26 77 79 64 5 44 60 59 90 100 100 100 86 82 55 5 48 15 90
0 0 0 0 0 0 0 6 6 19 34 2 0 14 60 100 81 100 100 100 100 100 100 99 92 86 47 51 83 92 10 97 100 100 100 97 70 54 65 64 100 96 30
5 4 1 0 0 12 9 0 0 1 0 2 67 40 92 100 100 100 100 100 100 77 85 22 64 100 72 94 29 99 63 100 100 34 50 75 69 90 100 95 92 100 100
5 6 5 4 0 35 100 6 0 8 34 82 85 92 100 100 100 100 96 70 78 92 91 100 100 98 100 100 52 26 34 97 59 84 100 91 100 18 0 1 5 5 38
23 69 2 0 0 38 99 98 31 39 57 85 79 100 100 100 100 51 3 5 39 99 100 100 81 73 100 85 85 66 76 27 78 44 13 8 0 0 2 4 5 5 10
100 100 98 98 97 10 100 77 83 57 70 95 100 100 100 100 16 55 7 25 98 99 53 52 94 100 100 100 85 59 4 0 0 0 0 0 0 0 0 0 0 0 0
85 14 36 82 81 100 55 57 83 85 84 100 94 91 80 48 40 100 100 98 100 27 36 42 14 9 5 3 7 5 4 0 0 0 0 0 0 0 0 0 0 0 0
93 72 100 100 100 100 100 100 83 100 100 100 100 100 100 47 34 55 100 100 90 59 39 51 5 28 71 88 3 4 0 0 0 0 0 0 0 0 0 0 0 0 0
100 100 100 100 100 100 100 100 100 100 100 100 100 91 82 79 100 100 100 100 93 99 100 100 100 34 5 1 4 0 0 0 0 1 0 0 0 0 0 0 0 0 0
100 100 100 100 87 100 100 100 100 100 100 100 94 27 18 91 98 98 100 100 100 100 100 100 95 25 41 12 2 0 0 0 0 0 0 0 0 0 0 0 0 0 0
100 100 100 100 42 100 100 100 100 100 100 100 34 28 43 60 100 16 76 100 100 100 100 100 7 8 16 5 0 0 0 0 0 0 0 0 0 0 0 0 0 0 0
100 100 100 23 20 66 100 27 57 47 19 65 6 25 92 30 100 100 100 100 100 94 100 60 12 5 2 0 0 0 0 0 0 0 0 0 0 0 0 0 0 0 0
100 100 78 74 7 15 83 44 37 17 19 100 100 98 88 88 100 82 99 98 100 100 100 46 0 0 0 3 4 0 0 0 0 0 0 0 0 0 0 0 0 0 0
100 100 64 47 57 100 57 87 48 47 100 100 100 100 99 87 61 84 80 14 100 100 36 44 5 45 55 73 0 0 0 0 0 0 0 0 0 0 0 0 0 0 0
100 100 100 86 28 63 100 100 100 100 100 100 100 100 97 95 100 100 91 100 99 10 34 5 81 100 64 7 0 0 0 0 0 0 0 0 0 0 0 0 0 0 0
100 100 100 100 97 91 100 91 100 100 100 100 100 100 87 98 100 100 100 100 100 70 60 30 53 100 87 8 0 3 0 0 0 0 0 0 0 0 0 0 0 0 0
99 78 64 95 100 48 97 84 16 18 90 100 100 100 82 90 100 100 100 100 100 74 5 60 99 100 100 3 64 100 19 0 0 0 0 0 0 0 0 0 0 0 0
100 99 100 95 100 100 100 99 86 99 100 90 87 98 100 100 100 100 72 89 56 35 18 97 100 100 70 0 39 100 7 0 0 0 0 0 0 0 0 0 0 0 0
99 100 100 100 100 100 100 100 100 92 100 100 77 99 100 100 54 87 63 80 100 63 100 100 96 22 1 1 20 11 1 0 0 0 0 0 0 0 0 0 0 0 0